DELTA 1 DEB, 21386

Orbit data source: Space-Track

DELTA 1 DEB, 21386 is space debris in SSO originally from a launch on Thu, 12 Jun 1975 UTC launched from the Air Force Western Test Range (AFWTR). Debris objects in space refer to the collection of defunct objects orbiting the Earth. Examples of debris include non-operational satellites, rocket bodies, and fragments generated from explosions, collisions, or faulty payload assembly.

Loading next visibility...
Identifier
21386, 1975-052DG
Orbit
SSO
Country
Flag of USUS
Related business
Manufacturer
Unknown
Mission
Spacecraft
Bus & Motor
Unknown
Mass
Unknown
Launch date (UTC)
1975-06-12 (51 years ago)
Launch vehicle
Unknown
Launch site
Air Force Western Test Range (AFWTR)
Object type
Payload
Rocket body
Debris
Shape & HBR
Unknown shape, 0.1 m
Radar Cross Section
Small (<0.1 m²)

Expand to show TLE details & history
Last TLE update: 13 hours ago

TLE from 13 hours ago
0 DELTA 1 DEB
1 21386U 75052DG  26124.60159264  .00000472  00000-0  10189-2 0  9991
2 21386  99.5607 173.7896 0177460 321.5619 194.7346 13.29243744687049
Epoch: 2026-05-04T14:26Z
TLE epoch observation values (Epoch: 2026-05-04T14:26:17.604Z)
Latitude
23.87461°
Longitude
-81.01825°
Altitude
1,281.74 km
Speed
7.155 km/s
True Right ascension
23h 52m 10s
True Declination
23° 45' 23"
Sunlit
Object was in daylight at epoch
Visualization orbit readout
Latitude
Unknown
Longitude
Unknown
Altitude
Unknown
Speed
Unknown
Apparent Right ascension
Unknown
Apparent Declination
Unknown
Sunlit
N/A
Visualization observer readout
Local Sidereal Time
11:20:20
Azimuth
Unknown
Elevation
Unknown
Doppler factor
Unknown
Orbital elements
Apogee altitude
1,280.478 km
Perigee altitude
1,013.398 km
Semi-major axis
7,525.075 km
Eccentricity
0.01775
Inclination
99.5607°
RAAN
173.7896°
Arg. of periapsis
321.5619°
True anomaly
194.22826°
Mean anomaly
194.7346°
Eccentric anomaly
194.48036°
Mean motion
3.32489 °/min
Orbital period
108.27 mins
BSTAR
0.0010189
Loading maneuver chart data...
Computing Atmospheric mass density...
Loading historical data...
Loading historical data...
Loading historical data...
Loading historical data...
Loading historical data...
Loading historical data...
Loading historical data...

Documentation

Showing up to 5 results
|